Regional Weather Roundup
Issued by NWS Charleston, SC

Current Version | Previous Version | Text Only | Print | Product List | Glossary Off
Versions: 1 2 3 4 5 6 7 8 9 10 11 12 13 14 15 16 17 18 19 20 21 22 23 24 25 26 27 28 29 30 31 32 33 34 35 36 37 38 39 40 41 42 43 44 45 46 47 48 49 50

000
ASUS42 KCHS 240344
RWRCHS

REGIONAL WEATHER ROUNDUP
NATIONAL WEATHER SERVICE CHARLESTON SC
1100 PM EDT SAT SEP 23 2017

NOTE: "FAIR" INDICATES FEW OR NO CLOUDS BELOW 12,000 FEET WITH NO
SIGNIFICANT WEATHER AND/OR OBSTRUCTIONS TO VISIBILITY.

NOT ALL STATIONS ARE QUALITY CONTROLLED. USE DATA WITH CAUTION...
ESPECIALLY DEWPOINT OBSERVATIONS.

SCZ027-030-031-034>040-042>050-240400-
...SOUTHEAST SOUTH CAROLINA...

CITY           SKY/WX    TMP DP  RH WIND       PRES   REMARKS
N CHARLESTON   PTCLDY    74  70  87 NE5       30.00S
WATERFRONT PRK   N/A     78  73  84 VRB3      29.84S
JOHNS ISLAND   FAIR      75  72  88 NE3       30.00S
PINOPOLIS        N/A     75  70  83 VRB2      29.94S
MONCKS CORNER  FAIR      68  68 100 CALM      30.01S
SUMMERVILLE    FAIR      70  70 100 CALM      30.02S
BEAUFORT MCAS  CLEAR     76  73  91 NE3       29.99F
BEAUFORT ARPT  FAIR      75  72  88 E5        29.99S
HILTON HEAD IS CLEAR     79  73  83 VRB6      30.00S
WALTERBORO     CLEAR     68  68 100 CALM      30.01S
ALLENDALE      NOT AVBL

...SOUTHERN MIDLANDS AND PEE DEE...

CITY           SKY/WX    TMP DP  RH WIND       PRES   REMARKS
GEORGETOWN     FAIR      70  68  94 N3        30.01F
KINGSTREE      FAIR      66  64  94 CALM      30.02S FOG
ORANGEBURG     CLEAR     71  67  87 CALM      30.02S
BARNWELL       FAIR      70  68  94 CALM      30.02R
AIKEN          FAIR      68  64  88 CALM      30.06S
MANNING        FAIR      68  54  60 MISG      30.02S
COLUMBIA       CLEAR     72  65  78 CALM      30.02R
SUMTER         CLEAR     69  62  78 CALM      30.01R
FLORENCE       CLEAR     70  62  76 E3        30.03S
MYRTLE BEACH   PTCLDY    76  69  79 NE6       30.03S
N MYRTLE BEACH PTCLDY    72  69  90 CALM      30.01S

$$

GAZ063-065-086>088-099>101-113>116-118-119-134>141-150-240400-
...SOUTHEAST GEORGIA...

CITY           SKY/WX    TMP DP  RH WIND       PRES   REMARKS
SAVANNAH ARPT  CLEAR     75  71  87 E5        30.00S
HUNTER AAF     CLEAR     75  71  86 CALM      29.97S
FORT STEWART   CLEAR     70  68  93 N3        29.96F
STATESBORO     CLEAR     70  69  96 CALM      30.00S
SYLVANIA       CLEAR     71  71 100 CALM      30.01F
CLAXTON        FAIR      71  71  98 CALM      30.00S FOG

...CSRA...CENTRAL AND FAR SOUTHEAST GEORGIA...

CITY           SKY/WX    TMP DP  RH WIND       PRES   REMARKS
THOMSON        CLEAR     70  67  90 CALM      30.08S
AUGUSTA-BUSH   CLEAR     70  68  93 CALM      30.01R
AUGUSTA-DANIEL CLEAR     78  66  66 E5        30.03R
SWAINSBORO     FAIR      72  72 100 CALM      30.02S
VIDALIA        CLEAR     73  70  88 CALM      30.01S
EASTMAN        FAIR      72  72 100 CALM      30.04R
HAZLEHURST     FAIR      74  68  81 CALM      29.99S
ALMA           CLEAR     71  69  93 CALM      29.99S
WAYCROSS       PTCLDY    73  70  90 E3        29.99R
JESUP          NOT AVBL
BAXLEY         FAIR      70  70 100 CALM      29.99S
BRUNSWICK      PTCLDY    75  70  83 NE3       29.98S
SAINT SIMONS   PTCLDY    80  72  76 NE13      29.97R

$$

SCZ027-028-034-036>038-045-046-048>050-GAZ119-141-240400-
...LAKE AND SUPPLEMENTAL COASTAL OBSERVATIONS...

STATION/POSITION TIME  TEMP    WIND        PRES    WAVE   SWELL
                       AIR SEA DIR/SP/G            HT/PER HT/PER/DIR
                 (UTC) (F)     (DEG/KT/KT) (MB)    (FT/S) (FT/S/D)
WINYAH BAY       0245   79      70/  8     1016.0S
LAKE MURRAY      0320   76      CALM  /  3 1016.3
ACE BASIN NERRS  0245   74        CALM     1015.0S
FORT PULASKI     0300   79 81   90/ 13/ 15 1015.8
SAPELO ISLAND    0300   78        CALM     1015.0

$$

ANZ835-935-AMZ111-154-330-350-352-354-370-450-454-472-240400-
...C-MAN AND BUOY OBSERVATIONS...

STATION/POSITION TIME  TEMP    WIND        PRES    WAVE   SWELL
                       AIR SEA DIR/SP/G            HT/PER HT/PER/DIR
                 (UTC) (F)     (DEG/KT/KT) (MB)    (FT/S) (FT/S/D)
BUOY 41004       0310   80 82   60/ 14/ 17 1014.5
BUOY 41008       0250   80 81   70/ 16/ 19 1014.0F   6/15   5/200/15
FOLLY BEACH CMAN 0300   79      60/ 11/ 12 1016.3S
CAPERS NEARSHORE 0208   77 80   70/ 10/ 16 1015.3
FRIPP NEARSHORE  0308   79      80/ 12/ 16 1021.4R


STATION/POSITION TIME  TEMP    WIND        PRES    WAVE   SWELL
                       AIR SEA DIR/SP/G            HT/PER HT/PER/DIR
                 (UTC) (F)     (DEG/KT/KT) (MB)    (FT/S) (FT/S/D)
5E ST. MARYS GA  0300      82                N/A     6/15   3/110/15
FRYING PAN BUOY  0310   80 82   60/ 16/ 17 1015.3
BUOY 41025       0250   73 75   40/ 16/ 17 1016.7R   7/11   7/160/11
CAPE LOOKOUT NC  0300   76      50/ 16/ 17 1016.7S
BUOY 41002       0250   79 80   50/ 21/ 25 1012.7F  15/14  13/120/14
BUOY 41010       0310           60/ 17/ 21 1012.6
ST AUGUSTINE FL  0300   82 82   50/ 16/ 18 1013.6R


$$




USA.gov is the U.S. government's official web portal to all federal, state and local government web resources and services.